GFSSE_925_thetae_021.txt.gz
Theta_e
327 322 318 320 320 316 315 315 316 316 315 314 313 313 313 314 315 316 317 318 318 319 322 325 326 326 327 329 330 331 327 332 337 341 344 345 344 344 344 344 344 348 345
329 318 319 320 321 317 315 316 317 317 317 316 316 315 316 316 316 317 319 320 322 325 328 329 329 328 327 327 329 330 332 331 329 333 340 343 344 343 344 344 344 348 343
329 319 318 319 322 319 316 317 318 319 318 318 318 318 319 320 327 326 324 324 323 329 331 332 332 332 330 329 328 330 331 332 332 328 333 346 347 344 344 343 343 345 342
329 323 320 318 322 321 317 317 319 319 319 320 320 322 325 327 331 332 333 333 332 332 332 333 333 333 333 332 330 329 330 331 332 333 331 342 347 345 343 344 343 343 341
330 328 326 321 322 322 318 318 319 320 321 321 322 325 329 330 332 333 335 334 333 332 331 332 333 331 332 333 333 331 329 329 332 333 332 338 345 345 343 343 342 342 342
330 330 330 324 322 322 319 319 320 321 322 323 325 331 334 335 336 337 336 336 335 334 333 333 331 331 332 333 334 334 331 330 330 330 333 333 341 344 343 342 342 343 343
331 328 332 325 323 323 320 320 321 322 324 326 331 336 337 336 337 337 337 336 335 335 334 334 334 333 331 332 335 335 333 331 329 330 332 333 338 340 343 342 342 342 343
332 329 332 327 324 323 321 321 322 323 326 328 329 334 336 337 337 336 336 334 333 334 334 334 333 332 332 332 333 333 334 332 332 331 332 333 334 338 342 342 342 342 342
332 330 331 332 326 324 321 321 323 325 328 329 327 330 333 333 333 333 329 328 330 331 332 333 332 332 333 333 334 332 333 333 332 332 331 332 330 335 340 342 341 341 341
332 333 331 333 341 340 337 325 324 327 328 328 328 330 333 328 327 325 326 327 327 329 330 331 330 330 330 329 330 333 333 333 332 332 332 330 329 331 339 341 341 340 340
334 333 334 337 339 340 339 339 331 330 330 330 332 334 328 331 329 329 328 324 325 328 327 328 329 330 330 330 331 332 332 331 332 332 330 331 328 328 338 341 341 340 340
333 334 334 333 338 339 339 340 341 340 337 338 336 334 332 331 330 329 327 324 323 326 327 328 330 331 331 331 329 331 330 330 332 331 328 332 328 328 336 340 341 341 340
332 333 334 332 333 336 338 339 338 337 335 333 330 327 327 329 330 330 328 327 327 325 325 326 327 327 327 329 331 330 329 330 331 331 326 327 328 328 335 340 341 341 340
330 332 335 331 330 332 337 333 330 329 326 326 326 326 327 329 330 329 327 326 326 325 326 327 327 327 327 328 330 330 329 330 331 331 326 325 328 328 331 339 341 342 339
328 330 332 332 332 333 334 328 325 323 324 324 324 325 326 328 329 329 328 327 326 325 326 327 326 326 327 329 330 329 330 330 330 330 325 325 329 328 327 337 340 341 340
327 327 328 330 333 335 329 326 323 323 322 325 326 327 327 328 328 328 328 327 327 327 326 326 325 326 327 329 329 330 330 330 330 327 322 327 328 327 328 334 339 340 340
325 324 324 329 333 329 326 323 324 321 324 327 328 328 328 328 328 328 329 329 328 326 323 325 325 326 327 328 329 329 329 329 327 325 325 329 331 327 332 333 339 341 341
324 324 322 326 328 326 323 324 322 323 326 327 328 328 328 328 328 328 329 329 328 326 325 325 326 326 327 327 329 329 328 328 327 326 328 329 331 333 335 335 337 341 340
322 323 321 325 326 323 325 324 323 325 327 327 327 328 328 329 329 328 329 328 326 326 325 326 326 325 327 328 329 328 327 328 327 328 329 331 334 335 337 335 337 339 340
323 320 321 323 324 326 325 325 325 326 327 328 329 330 330 330 329 329 327 326 325 326 325 326 326 326 326 327 327 327 328 328 328 327 330 331 332 335 335 337 337 330 336
324 325 325 327 328 327 327 327 329 329 331 330 330 329 330 331 330 328 327 325 324 324 325 326 326 326 327 327 327 326 329 329 329 329 328 333 331 334 335 337 335 326 331
326 326 327 329 327 327 327 328 329 331 331 331 330 329 330 330 329 328 326 323 321 324 326 326 326 326 327 327 327 327 329 329 330 331 331 333 332 334 335 336 335 334 330
326 327 329 328 327 326 326 327 328 327 330 330 331 331 329 328 328 328 327 325 325 326 327 326 325 326 326 327 327 328 328 328 331 331 332 332 332 332 333 334 334 332 334
327 328 329 328 326 326 326 329 331 332 331 331 330 330 329 326 329 326 326 326 327 327 326 325 325 326 326 327 327 329 327 331 332 334 331 332 331 332 333 334 334 332 334
327 328 328 328 328 328 328 330 331 330 330 330 329 329 327 328 328 327 327 326 327 327 326 326 325 326 326 327 328 328 330 330 329 332 334 331 331 333 333 334 333 332 332
327 327 328 329 329 329 329 329 330 330 329 329 328 329 329 329 327 328 327 327 327 327 326 326 326 327 328 326 326 325 329 330 331 332 331 330 330 330 331 329 332 332 331

GFSSE_925_thetae_024.txt.gz
Theta_e
331 337 315 316 317 315 313 313 314 315 314 313 313 312 312 313 314 315 317 318 320 320 321 325 325 327 327 329 330 328 322 333 339 341 345 344 343 344 344 344 346 349 345
332 336 317 317 318 317 314 313 315 316 315 315 315 315 314 314 315 315 317 320 321 324 328 329 330 329 329 328 329 330 330 326 330 335 341 344 344 343 344 344 344 350 344
332 336 324 318 319 319 315 314 316 317 317 317 317 317 317 317 316 317 317 321 323 330 331 332 332 332 332 330 329 330 332 332 330 331 332 344 347 344 343 344 344 347 343
332 335 337 320 319 321 317 315 316 318 318 318 319 319 321 322 325 328 327 328 330 332 332 333 334 334 334 334 332 330 330 332 332 332 325 336 346 346 344 344 344 344 343
333 333 338 323 319 322 319 316 317 318 319 319 320 322 324 326 330 333 333 334 334 334 333 333 333 333 333 334 334 334 332 330 330 331 326 329 340 346 345 345 343 343 343
334 334 337 326 319 322 322 317 317 319 320 321 322 323 326 331 331 332 336 337 337 336 335 334 333 334 333 334 334 335 334 332 330 326 327 331 335 343 345 344 345 344 343
334 333 338 328 320 322 323 318 318 319 321 322 323 325 331 333 334 337 338 337 337 336 335 336 335 335 335 334 333 335 336 334 331 328 327 331 330 338 342 343 344 342 343
334 334 338 334 322 321 323 321 319 320 321 323 324 326 329 333 335 338 337 337 336 334 334 335 335 333 333 333 333 334 334 335 332 331 330 329 330 333 339 343 344 343 341
335 335 338 342 332 321 323 323 321 321 322 324 326 328 330 333 337 336 337 335 332 331 332 332 334 335 332 333 333 334 333 333 332 332 332 331 330 329 335 342 343 342 342
335 336 336 341 341 341 340 328 322 323 324 328 330 331 331 332 334 333 329 327 329 330 329 330 332 333 333 333 332 333 334 331 332 332 332 332 329 331 332 341 343 342 342
333 335 335 337 339 341 340 340 332 327 330 332 334 333 331 334 333 333 331 329 327 328 329 329 329 329 331 331 331 332 331 331 330 331 332 332 330 328 334 340 342 342 342
333 333 335 337 339 340 338 339 343 339 338 338 337 337 336 333 332 332 330 329 327 325 325 327 328 329 331 330 329 328 329 330 329 330 332 331 330 327 335 338 341 342 342
331 333 334 338 339 340 338 339 340 340 338 338 338 337 334 331 332 332 332 331 331 329 328 326 327 328 327 330 329 330 327 328 327 329 330 329 327 330 335 336 340 341 342
331 331 334 336 340 341 338 338 339 338 337 335 334 335 334 333 332 332 331 330 330 329 328 327 327 328 328 327 327 331 330 329 327 329 330 328 325 329 334 335 338 341 342
331 331 334 337 340 342 341 339 338 335 333 331 330 330 333 332 332 332 332 331 330 329 328 327 327 328 328 329 328 329 330 329 328 331 331 327 322 324 329 335 337 340 342
331 331 334 337 340 341 341 339 337 334 330 331 328 330 333 332 332 333 332 331 331 330 329 328 328 327 327 328 329 330 330 328 329 331 331 327 320 323 327 328 335 340 341
332 333 333 337 340 342 340 339 335 331 330 328 329 333 333 334 333 333 332 331 331 330 330 329 327 327 327 327 329 330 330 330 330 330 330 325 325 328 327 325 332 338 341
332 332 333 334 338 341 338 336 331 330 329 329 331 333 334 334 333 333 333 332 331 330 330 328 327 327 327 327 329 329 329 330 330 329 325 324 326 328 329 325 332 335 341
332 333 332 333 337 339 336 333 331 331 329 330 332 332 333 334 333 333 332 330 332 329 329 329 328 327 327 328 329 329 329 329 329 325 323 326 331 331 329 334 335 336 340
332 331 331 332 335 336 334 332 330 330 330 331 332 333 333 334 334 333 332 333 327 327 328 328 328 327 327 328 328 329 328 328 327 325 326 330 333 333 333 336 339 338 338
330 331 331 333 335 333 332 330 330 329 329 331 332 333 334 334 333 332 332 328 327 328 326 327 327 328 327 328 329 329 329 329 327 326 329 333 334 334 336 337 339 337 338
331 331 332 333 334 332 331 330 329 328 330 332 332 334 334 333 332 332 331 330 328 324 326 326 328 327 327 328 328 328 332 329 329 331 331 333 333 334 336 338 335 326 325
331 332 332 334 334 332 332 331 332 333 332 332 333 333 334 333 332 332 331 328 327 326 327 328 328 327 328 329 329 329 332 329 329 331 332 333 334 334 336 338 336 333 333
332 332 333 333 334 333 332 330 331 330 330 332 333 332 332 332 331 331 329 329 328 328 329 329 328 328 328 329 330 329 329 328 328 336 333 333 334 335 337 337 336 335 335
331 332 333 334 333 332 332 331 333 332 332 332 332 332 332 332 331 329 330 329 328 329 329 328 327 328 329 330 328 331 329 327 330 334 336 333 333 333 334 335 335 334 334
331 332 333 333 332 333 332 334 334 334 333 332 332 331 331 331 331 330 329 329 329 329 328 328 328 328 330 331 330 329 331 329 329 332 337 334 333 332 333 334 333 333 334

GFSSE_925_thetae_027.txt.gz
Theta_e
336 344 317 314 314 313 312 311 311 313 312 312 312 312 312 313 314 319 324 323 319 319 321 322 324 327 326 328 329 330 328 333 339 341 345 343 343 344 344 347 346 349 344
334 344 319 315 315 314 313 312 313 315 314 314 314 313 313 314 315 317 319 321 324 326 328 330 330 330 330 328 329 330 330 330 330 336 340 344 343 343 344 344 345 349 347
334 343 325 316 317 316 314 313 314 316 316 316 316 316 317 316 316 317 319 326 329 330 331 332 333 333 333 332 331 330 331 332 332 330 332 339 346 345 342 344 345 347 347
334 343 337 318 318 318 316 314 315 317 317 317 318 319 319 321 321 322 324 327 332 333 333 333 333 334 335 335 334 333 331 331 332 333 324 326 337 346 345 343 343 344 347
334 342 339 325 318 320 319 315 315 317 318 318 319 320 321 324 328 331 333 334 335 335 335 335 334 334 335 335 335 335 334 332 331 328 325 323 327 340 345 343 343 343 345
334 337 341 333 319 320 320 317 315 317 318 319 320 322 325 328 330 330 333 335 337 337 337 336 336 335 335 335 335 336 336 335 333 329 325 325 328 335 342 344 343 345 344
334 334 341 337 321 320 322 319 316 317 319 320 322 324 326 327 328 332 337 338 339 338 338 336 337 336 336 336 335 335 336 337 335 332 328 326 330 331 334 342 343 343 344
334 334 336 337 332 320 322 322 318 318 319 321 323 325 326 327 329 337 339 337 338 337 336 334 335 336 335 333 335 335 335 334 335 334 332 329 331 331 333 335 342 343 343
335 335 335 346 338 328 322 324 322 319 320 321 323 325 327 327 330 338 338 338 337 334 332 331 332 333 336 334 334 334 335 335 333 334 332 332 330 330 329 330 342 343 342
336 336 336 340 347 344 340 336 328 321 321 322 323 326 328 329 329 331 329 331 329 331 331 327 329 331 333 334 333 334 334 335 332 333 332 333 332 331 330 327 341 342 342
334 336 337 336 340 343 340 341 339 331 324 325 328 330 333 335 334 338 337 334 331 330 328 330 330 329 329 331 332 332 331 331 330 331 332 333 332 330 328 327 340 342 341
333 335 335 337 337 341 339 340 345 341 338 338 338 339 341 339 335 334 333 332 330 329 327 326 323 325 329 327 328 329 331 329 330 331 332 332 332 331 329 328 338 341 342
331 333 335 337 338 340 340 339 344 343 340 340 341 340 339 337 332 333 333 334 333 333 333 332 331 331 329 328 329 331 332 330 328 329 329 331 332 330 326 334 337 340 341
329 333 333 336 339 340 340 338 339 341 340 340 339 340 340 336 333 334 333 332 333 332 332 331 330 329 329 329 329 330 331 331 329 327 333 331 330 329 325 335 336 339 339
329 331 333 336 341 342 342 339 339 339 339 338 337 336 336 333 333 334 334 334 333 332 331 330 330 329 329 328 329 328 328 332 328 331 331 330 330 328 323 334 335 338 339
330 331 335 336 341 343 344 343 341 341 337 336 334 333 333 334 334 334 334 334 333 332 332 331 329 329 329 329 328 328 330 331 329 330 331 329 330 324 318 326 334 336 340
329 333 335 336 342 345 345 344 342 340 336 333 333 331 332 336 336 336 334 334 333 331 333 333 332 330 328 328 327 329 330 331 330 328 330 331 331 324 315 323 326 327 339
331 333 335 336 341 345 345 344 342 338 335 331 331 332 336 337 336 335 335 334 334 334 333 332 331 331 329 328 328 330 330 330 330 331 331 331 328 328 330 325 324 327 336
332 334 337 337 339 344 345 344 341 335 333 331 331 333 334 336 335 335 335 335 334 333 333 331 330 331 329 328 329 331 331 332 331 330 331 328 327 329 332 331 322 330 334
334 334 338 339 338 343 344 342 336 334 333 331 332 333 334 335 334 335 336 334 334 334 329 328 331 331 330 330 330 330 331 330 330 330 327 327 329 330 330 334 336 336 335
334 337 338 337 340 343 341 337 334 333 333 332 332 333 335 335 334 335 336 335 334 331 330 330 328 328 329 330 331 330 331 331 330 327 327 328 332 332 331 332 338 338 339
336 337 337 337 340 341 337 334 332 332 331 331 332 334 335 335 334 335 335 335 332 331 330 328 329 329 329 328 329 330 332 332 330 328 328 332 334 333 332 335 338 339 336
336 337 337 338 340 337 335 333 334 333 335 334 332 333 335 335 335 334 334 333 332 330 328 328 329 329 330 329 330 331 333 332 331 329 330 332 333 332 331 337 336 333 332
337 337 338 338 338 335 335 335 334 332 331 332 333 332 335 334 332 333 333 332 331 330 329 330 330 330 329 330 330 330 330 330 333 333 331 332 333 333 334 338 336 335 331
336 336 338 338 336 336 336 333 334 332 330 331 331 334 335 334 334 332 331 331 330 330 331 331 330 329 329 330 331 330 329 330 329 329 337 334 332 334 336 338 337 336 332
335 337 337 337 336 336 334 335 336 335 333 332 334 334 334 336 334 333 330 330 330 332 331 330 328 329 332 332 331 331 330 331 331 332 337 337 336 333 335 336 336 335 332

GFSSE_925_thetae_030.txt.gz
Theta_e
345 331 320 315 314 314 312 311 310 312 312 311 311 312 313 315 317 318 317 316 317 320 322 322 324 325 324 327 328 329 329 327 336 341 344 344 343 344 343 345 344 349 342
345 330 318 315 315 314 313 311 312 313 313 313 313 313 313 314 317 322 325 325 321 322 326 329 329 330 331 330 328 329 329 330 329 331 338 343 344 342 344 344 344 348 346
345 331 319 315 316 315 314 312 313 315 315 315 315 315 315 315 315 317 321 328 330 330 330 331 332 333 333 333 332 331 330 330 331 331 326 334 341 346 342 343 344 345 347
343 335 323 316 316 317 315 313 313 316 316 316 317 317 318 319 320 322 323 325 330 332 333 333 333 333 334 335 335 334 333 331 331 331 325 324 326 339 344 343 342 343 347
343 337 328 317 317 318 317 314 314 316 317 317 318 320 320 321 323 324 326 329 334 335 336 336 335 335 335 334 336 335 335 334 333 331 327 325 323 326 342 344 342 342 344
342 344 337 321 317 318 318 316 314 316 317 318 319 321 323 325 327 328 330 334 335 337 338 338 337 337 336 335 335 335 335 336 336 333 330 324 324 332 339 341 343 343 343
335 342 340 336 319 319 319 318 315 316 317 319 320 321 323 324 327 328 331 336 338 339 339 339 336 337 336 335 335 335 335 336 337 336 333 331 326 330 330 333 340 341 343
335 336 340 336 329 319 320 320 317 316 317 318 320 322 325 325 327 329 334 338 338 338 337 337 335 334 335 335 333 333 335 333 333 336 335 332 333 330 331 331 333 340 342
335 335 338 338 336 326 320 322 321 317 318 319 320 323 324 326 327 327 328 337 337 337 335 331 329 327 331 334 334 334 333 335 334 333 334 335 332 330 330 329 328 337 341
336 336 336 338 338 336 327 323 323 322 319 319 320 322 324 327 327 325 324 331 331 330 330 329 328 326 326 330 333 334 334 335 335 334 332 334 334 333 330 329 324 339 341
333 336 340 340 344 342 343 340 335 326 323 321 323 324 326 330 334 335 337 338 336 333 331 330 328 326 324 324 329 332 331 332 331 333 331 331 334 332 330 328 326 334 341
331 333 338 340 344 346 344 342 340 336 335 326 330 331 330 335 337 337 335 337 335 332 330 330 329 326 326 327 327 327 331 331 331 330 331 333 333 332 331 330 327 329 341
331 330 335 337 338 344 344 341 342 343 341 339 336 337 340 341 341 339 334 333 332 332 332 333 333 329 331 330 328 330 331 332 331 330 329 332 332 331 331 328 321 329 340
330 330 329 338 338 340 343 342 346 346 344 341 340 339 341 340 339 335 332 334 335 334 333 332 332 332 331 331 330 329 330 332 331 332 331 334 332 331 331 328 321 326 338
330 331 331 338 337 339 341 342 345 346 345 342 342 342 343 341 338 335 335 335 335 334 332 333 332 331 330 328 327 328 331 329 331 331 331 332 331 330 330 328 325 331 338
331 329 329 334 338 339 340 342 342 342 344 343 342 342 341 339 335 336 336 335 335 333 333 332 332 331 329 330 329 329 328 329 331 331 328 332 330 330 329 326 331 333 337
331 330 331 336 341 341 345 340 346 342 341 342 339 337 336 334 334 337 336 336 334 334 332 332 332 332 330 328 329 329 327 328 329 332 330 331 330 329 327 319 322 333 335
329 331 331 335 344 345 348 345 341 343 342 339 336 334 332 335 336 338 337 335 334 334 333 332 332 332 332 330 329 329 330 330 329 329 330 330 331 331 327 317 317 324 325
330 332 335 337 349 348 348 348 344 344 340 338 334 333 334 335 337 337 336 335 335 334 333 332 332 331 330 331 329 327 329 331 331 330 329 330 329 329 331 331 323 325 323
335 336 337 340 344 348 349 347 346 343 338 335 332 333 334 336 336 336 335 336 336 333 332 332 331 327 328 329 330 330 330 330 331 331 330 330 329 327 329 333 330 324 329
337 336 340 341 342 348 349 347 344 341 336 334 333 334 334 335 336 335 335 335 334 333 333 331 330 330 328 329 330 329 328 329 330 331 330 328 327 328 330 332 331 333 332
338 339 341 341 341 347 347 345 340 337 335 334 333 333 334 335 334 334 335 334 334 333 331 331 330 328 327 327 327 328 331 330 330 330 330 328 330 331 331 332 333 335 338
340 340 340 341 346 345 342 340 338 334 336 334 335 335 336 335 335 335 334 334 333 331 330 330 329 329 331 329 327 329 331 332 329 328 329 330 333 331 333 333 334 338 337
340 339 341 343 344 342 338 338 335 335 335 335 333 334 336 337 334 332 333 333 331 331 331 329 329 329 329 329 329 328 328 328 330 330 329 330 330 330 332 331 335 335 334
340 340 342 343 342 340 337 335 337 337 335 333 332 335 336 336 335 334 333 332 331 330 330 329 330 328 329 329 330 329 328 329 327 326 330 332 332 329 332 334 335 333 330
339 340 342 341 341 337 336 337 335 334 335 334 333 335 333 334 335 334 333 331 331 330 331 331 330 329 329 329 329 329 331 329 326 326 330 331 330 330 329 331 334 336 333

GFSSE_925_thetae_033.txt.gz
Theta_e
336 324 320 316 315 315 314 311 311 312 312 312 311 312 312 312 313 314 315 316 317 317 318 318 320 323 322 324 327 326 319 319 325 336 340 343 343 344 343 343 345 349 339
338 324 319 315 316 316 314 311 313 314 314 313 313 313 313 314 315 316 316 316 318 322 323 324 327 329 329 329 328 328 328 327 324 317 328 337 343 343 343 342 344 348 342
332 325 318 316 316 317 314 311 314 316 316 315 314 314 315 315 318 319 321 323 323 326 327 330 331 331 332 333 333 331 330 329 329 329 315 320 337 343 345 341 343 346 346
331 324 318 316 316 317 315 312 314 316 316 316 316 316 317 317 317 318 320 326 330 331 331 333 333 333 333 334 335 335 333 332 330 329 317 311 320 326 332 342 341 342 347
331 324 319 317 317 317 316 313 314 316 317 317 317 317 317 318 319 322 323 326 331 334 334 336 336 335 335 335 334 334 335 334 334 333 322 317 321 324 331 341 342 341 343
335 327 321 317 317 317 317 314 313 316 317 317 318 318 319 319 320 321 324 328 333 336 337 338 338 338 337 336 335 335 334 335 334 332 331 329 326 326 341 339 343 342 341
338 331 324 318 317 317 317 316 313 315 317 318 318 319 320 321 321 322 325 328 333 337 339 339 338 337 336 336 335 334 334 335 335 330 333 333 333 331 331 332 338 341 341
335 338 328 323 320 318 318 317 315 315 316 318 318 319 320 321 322 323 324 327 332 339 338 336 337 334 332 332 332 333 333 333 334 332 334 335 335 335 330 330 329 331 340
335 335 337 328 324 321 319 320 318 315 316 317 318 319 321 322 322 323 323 323 330 336 334 330 327 326 325 326 329 332 333 334 332 327 329 334 334 333 331 329 329 328 331
337 335 338 336 331 324 320 320 320 319 316 317 319 320 322 324 324 324 323 323 328 330 330 328 328 327 325 325 327 330 334 334 334 328 327 330 333 335 333 330 328 325 324
336 336 337 336 335 331 324 320 320 321 319 317 319 321 325 326 326 325 326 333 335 334 332 331 330 330 326 326 326 328 333 334 332 329 325 327 331 334 337 330 328 324 326
330 339 336 337 336 336 333 327 322 322 323 323 322 324 327 326 326 326 334 336 336 337 335 331 330 330 328 327 324 328 331 327 328 327 329 331 331 333 333 329 328 327 323
330 332 340 337 337 337 338 337 333 329 329 328 326 325 327 327 326 335 337 337 333 335 334 331 331 332 329 330 328 327 329 328 329 329 329 329 331 332 332 331 329 326 324
330 330 335 340 338 340 343 341 338 335 333 329 328 329 329 333 337 339 339 337 334 334 332 333 332 332 331 331 331 330 330 331 332 332 331 331 330 332 334 330 329 325 326
330 330 330 336 340 341 345 343 342 340 339 337 336 332 332 336 339 342 337 332 334 335 334 334 333 332 331 330 330 328 329 331 330 331 330 331 333 332 332 332 329 326 325
330 331 329 330 335 341 345 342 342 342 341 340 341 339 337 338 341 340 335 335 336 334 333 332 333 332 331 329 329 328 327 327 329 330 331 330 332 331 330 330 330 333 333
332 330 328 328 330 336 342 342 343 344 344 344 342 340 340 342 342 338 335 336 336 335 334 332 332 332 332 330 329 329 329 328 327 330 330 330 331 330 329 328 328 333 334
330 329 328 331 334 339 341 344 344 344 345 345 343 343 344 343 339 333 335 336 335 334 334 333 332 331 331 331 330 329 328 329 329 329 329 330 330 330 329 327 320 327 332
327 328 331 335 336 341 342 341 346 344 343 343 337 336 335 334 333 334 336 336 336 335 334 333 332 331 331 330 330 329 328 329 329 329 329 330 330 331 331 330 324 319 329
330 333 333 338 340 344 346 345 343 345 343 337 335 334 333 332 333 335 335 335 335 334 334 332 331 330 330 329 329 328 328 329 329 331 329 328 328 329 330 328 330 320 325
336 336 339 343 347 347 348 347 345 341 338 337 334 332 334 334 335 336 335 335 336 335 333 332 331 330 328 327 329 328 328 328 329 330 331 330 327 328 326 327 331 330 324
336 339 342 345 349 349 347 347 346 342 338 336 334 332 333 336 336 335 333 333 334 333 333 332 330 329 328 327 327 327 327 327 327 328 329 330 330 329 327 330 331 327 324
339 341 342 345 349 348 347 345 343 339 337 335 334 333 334 334 335 334 333 333 332 332 332 331 330 329 328 327 326 324 325 326 324 327 328 329 330 328 330 332 332 332 330
340 340 340 344 347 346 345 341 339 338 337 336 335 334 335 335 335 332 332 331 332 330 330 330 329 329 328 328 328 327 326 327 324 325 328 329 329 328 329 331 332 331 333
340 341 344 345 344 341 340 339 337 334 334 335 335 334 336 335 334 333 333 332 331 330 330 329 329 328 329 328 327 328 327 326 326 323 324 327 329 328 330 331 330 331 332
341 343 343 343 341 340 337 335 334 335 337 334 336 336 335 334 334 334 333 331 331 330 329 330 330 329 329 328 328 329 329 325 323 323 321 324 325 329 329 330 332 331 330

GFSSE_925_thetae_036.txt.gz
Theta_e
337 324 321 317 314 313 311 311 313 314 313 312 312 311 311 311 311 311 312 313 314 315 317 318 318 318 319 321 324 322 321 316 318 332 339 342 342 344 344 342 342 341 343
341 324 321 316 315 314 312 312 314 315 313 313 313 313 313 313 313 313 314 315 316 318 318 320 325 326 326 325 325 324 326 327 325 314 322 335 341 342 343 343 343 342 340
331 323 320 315 315 315 312 313 315 315 314 314 314 313 314 314 314 314 315 316 319 324 326 326 326 328 331 332 331 330 327 327 326 323 313 314 331 338 342 342 342 346 342
328 323 320 316 316 316 313 313 315 315 315 315 315 315 315 315 315 315 316 318 321 327 329 331 333 333 333 332 333 334 333 331 328 327 319 310 314 327 326 338 341 341 346
327 323 319 316 316 316 314 312 315 316 316 316 316 315 316 316 317 317 319 322 329 332 332 335 335 335 335 335 335 335 333 332 331 328 324 315 318 323 330 334 341 341 343
327 324 320 317 317 318 315 313 315 316 317 317 316 316 316 317 317 318 320 323 329 335 336 336 337 338 338 337 335 336 336 334 334 329 328 327 330 329 340 338 341 341 340
327 323 321 319 318 318 317 314 314 316 317 317 318 317 318 318 319 319 319 321 327 334 337 338 339 337 335 335 335 335 334 336 335 329 329 331 332 332 340 336 337 340 340
332 324 321 319 318 318 319 317 314 315 317 318 318 318 319 319 320 321 321 320 326 336 339 339 338 336 332 331 331 331 333 336 335 332 327 332 334 334 335 331 330 333 340
334 331 323 320 318 318 319 319 315 314 316 317 318 318 319 320 321 322 322 322 325 331 336 336 333 331 328 325 324 326 329 335 336 332 326 330 334 335 333 332 328 328 328
335 335 330 323 319 318 319 319 318 315 315 316 317 318 319 321 322 324 323 323 323 329 332 329 328 328 329 327 326 327 332 335 336 334 329 325 332 333 336 332 329 328 326
339 338 335 328 322 319 319 319 319 318 315 316 317 318 319 322 324 325 324 324 324 329 333 332 330 330 330 329 329 328 332 333 333 332 330 326 326 331 336 333 331 328 325
337 338 338 336 328 324 322 321 319 320 318 316 317 319 320 322 324 325 325 326 332 334 336 335 332 330 330 328 328 330 330 329 330 328 327 325 327 330 336 333 331 329 326
331 337 337 337 337 334 331 326 327 324 323 321 319 319 321 322 326 327 325 330 335 335 336 336 332 330 331 329 329 327 325 328 328 327 327 326 329 332 336 332 330 330 329
329 330 333 336 337 337 338 334 331 331 328 328 325 322 323 325 326 326 325 335 337 336 334 335 332 331 331 331 330 330 329 329 330 329 330 331 330 329 334 332 331 330 328
329 329 329 335 337 338 340 338 337 335 332 329 330 328 325 326 327 325 333 338 338 336 334 334 332 332 332 331 330 330 330 330 331 331 332 332 331 330 331 331 331 330 328
329 329 328 334 336 339 339 339 338 339 338 334 332 329 328 329 328 328 338 340 334 332 334 333 333 333 333 331 330 329 328 328 329 330 329 329 331 330 331 331 331 331 334
329 329 329 330 334 339 340 340 341 341 341 338 334 333 332 333 331 332 339 338 334 335 334 333 333 332 332 331 330 329 329 329 328 328 329 330 329 331 332 331 330 329 335
328 328 330 329 331 336 341 342 342 342 342 341 340 339 340 338 334 339 340 336 335 336 334 333 332 332 331 331 331 330 328 328 328 328 327 329 330 331 330 329 328 328 332
328 329 330 328 329 331 338 341 342 343 343 342 342 341 341 340 339 341 339 334 335 335 334 334 333 332 331 331 329 329 330 328 329 329 329 329 330 330 330 329 328 325 330
328 330 329 330 331 334 340 343 343 343 344 344 344 343 342 342 342 339 333 334 335 335 335 334 333 332 331 330 329 329 329 327 327 328 329 329 329 329 330 330 330 329 320
327 331 332 332 337 340 343 346 345 344 343 340 339 340 339 342 332 332 334 334 334 335 334 332 332 331 330 330 327 328 328 328 328 328 329 330 329 328 329 329 328 331 324
332 334 335 336 340 344 345 344 344 341 337 336 335 334 333 332 333 335 335 336 336 335 332 332 331 330 329 328 327 327 326 326 327 327 328 330 330 329 329 328 326 329 330
335 337 340 343 345 347 346 345 342 339 337 335 333 334 334 334 335 335 335 334 333 333 331 331 330 330 328 327 327 322 323 327 324 326 327 328 329 329 329 328 328 331 329
337 341 344 346 348 347 346 345 342 338 335 335 334 333 334 336 336 335 334 332 331 331 331 330 329 329 328 327 326 325 325 326 323 322 326 328 328 329 329 330 331 331 331
339 341 346 348 348 346 345 344 342 337 336 334 334 334 335 335 334 334 332 332 331 330 330 330 330 329 328 328 327 327 327 325 326 321 323 325 328 328 328 329 330 331 329
340 342 345 346 345 344 342 340 337 335 334 334 335 335 335 335 334 334 333 332 330 330 329 329 328 328 328 328 328 327 327 323 321 322 320 322 323 327 329 330 329 329 330

GFSSE_925_thetae_042.txt.gz
Theta_e
341 332 319 317 314 312 311 311 312 312 312 311 311 311 310 310 309 309 309 309 309 310 312 312 312 313 314 318 318 314 312 313 317 330 338 341 343 344 342 341 340 343 343
335 330 319 315 313 312 310 311 312 312 311 311 311 311 310 310 310 310 310 310 311 312 314 316 316 316 317 319 320 319 320 317 315 313 321 334 341 342 343 343 340 340 342
332 329 320 315 314 313 311 312 312 312 312 312 312 311 311 311 310 310 311 311 311 313 314 314 316 318 319 321 323 323 322 321 322 325 323 315 332 337 340 342 344 340 338
329 328 321 316 314 314 312 313 313 313 313 313 312 312 312 312 312 312 312 313 315 319 322 321 324 326 329 330 329 328 325 327 328 329 326 316 313 326 333 340 343 341 338
330 326 321 317 315 314 312 313 313 313 313 313 313 313 313 313 313 313 314 315 318 325 328 330 332 333 334 335 335 333 332 330 331 334 328 324 313 318 325 327 341 342 341
330 327 321 318 316 315 312 313 314 314 313 313 314 314 314 314 314 314 315 317 324 331 333 333 335 336 337 336 336 336 336 336 336 332 329 327 321 324 329 331 332 339 339
334 330 321 319 316 316 314 313 314 314 314 314 314 314 315 315 315 316 316 319 325 333 334 334 336 336 338 336 335 336 336 336 336 335 332 328 327 328 331 336 332 334 339
336 332 323 320 317 317 316 313 313 315 315 314 315 315 315 316 317 317 318 319 326 333 335 336 334 335 333 331 330 331 330 331 335 335 335 331 328 330 332 338 336 335 337
336 329 324 322 317 316 317 315 313 314 315 315 315 316 316 317 318 318 319 319 324 330 332 333 336 335 330 330 329 328 327 328 332 333 334 333 330 330 334 339 335 331 328
335 329 325 325 322 316 316 315 313 313 315 316 316 316 316 317 318 319 320 321 322 326 329 332 333 332 330 330 329 329 328 331 332 331 333 334 332 327 332 337 334 331 329
337 333 328 326 324 319 318 319 316 313 313 315 316 317 317 318 318 319 321 322 323 323 327 331 332 331 330 330 329 328 330 331 328 329 330 331 332 329 331 333 336 332 330
338 337 334 329 326 324 321 323 323 318 317 315 316 317 318 319 319 319 321 322 323 323 324 330 333 333 331 330 329 329 329 329 328 324 326 328 329 332 332 332 333 331 330
335 337 336 334 329 326 324 323 326 323 321 318 316 317 321 321 321 322 323 323 324 324 326 330 332 335 333 331 330 330 328 325 324 326 326 325 326 328 331 333 332 332 331
334 335 335 336 335 330 328 326 324 325 325 323 320 321 324 325 324 323 324 324 324 325 328 333 334 335 335 333 330 330 329 328 328 329 329 329 328 329 328 334 334 331 331
328 331 332 334 335 336 334 331 328 327 328 328 327 325 327 327 328 323 324 324 324 325 327 333 335 335 335 333 330 330 330 329 329 330 329 329 330 330 330 331 335 332 331
325 327 327 327 327 333 336 336 333 331 331 330 328 329 329 329 329 324 321 324 324 325 325 333 336 336 335 333 331 331 331 329 329 328 328 328 329 329 329 330 332 334 333
325 325 324 325 324 327 331 336 336 334 332 332 331 331 331 332 330 327 319 321 324 322 323 334 337 335 334 333 331 332 331 330 329 328 328 327 327 328 328 329 328 330 331
324 324 324 324 324 326 329 333 337 336 335 334 334 334 334 333 331 330 325 323 322 323 326 336 333 333 333 332 330 331 330 330 330 329 328 327 327 328 330 328 329 329 329
323 323 324 324 323 325 327 334 338 338 337 337 337 336 336 335 333 332 330 326 324 326 333 335 332 333 333 330 330 331 330 330 330 329 328 327 327 327 329 329 329 330 329
323 323 323 324 324 324 329 336 338 338 338 338 338 338 338 337 336 334 333 330 330 333 336 334 334 333 332 332 330 330 330 330 328 329 328 328 328 327 328 329 330 329 327
323 323 323 323 324 325 334 338 339 339 339 339 339 339 339 339 336 334 334 333 333 337 334 333 334 333 331 330 327 328 328 328 328 328 327 327 328 327 328 328 329 329 329
321 321 323 323 323 326 332 338 339 339 338 340 340 340 341 339 337 338 337 336 338 335 333 334 333 330 328 329 326 323 327 325 326 326 327 327 327 328 328 328 329 328 328
319 321 322 326 325 329 333 337 339 339 339 340 340 341 340 340 340 339 339 339 336 333 334 333 331 332 326 327 326 324 325 327 324 324 326 327 327 328 328 328 328 328 328
319 320 323 330 330 333 337 338 338 339 336 339 341 341 341 341 340 340 338 333 332 333 334 332 331 330 328 326 326 324 323 322 326 326 324 325 326 328 328 328 328 328 327
317 321 329 336 337 339 340 340 340 339 338 339 340 340 339 339 340 335 331 332 334 334 332 331 330 329 328 326 325 325 324 323 323 324 325 326 326 327 327 328 328 327 328
322 330 337 340 341 341 341 340 339 337 334 334 335 334 333 332 333 334 333 334 333 331 330 329 328 328 328 327 326 325 325 324 323 323 323 323 325 325 328 328 329 329 329

GFSSE_925_thetae_045.txt.gz
Theta_e
339 336 321 319 317 315 314 313 312 312 312 313 316 321 322 322 319 317 315 315 313 311 311 311 312 312 314 315 312 310 310 312 317 329 337 341 343 343 341 340 342 346 343
336 333 320 318 316 314 312 312 312 313 312 312 312 313 313 313 312 311 310 309 309 312 317 316 314 315 317 320 318 318 318 314 310 310 318 333 339 343 343 342 340 346 342
334 333 320 317 316 313 311 312 312 312 312 311 311 310 310 310 310 310 310 310 312 313 315 315 315 317 317 319 320 320 321 321 321 320 312 320 329 337 339 342 343 340 341
332 329 322 316 315 312 311 312 312 312 312 311 311 311 311 311 311 311 312 314 316 316 316 316 320 324 327 328 326 325 322 323 325 327 328 324 321 327 335 337 341 341 339
333 326 322 317 315 313 312 312 313 313 312 312 312 312 312 312 312 312 313 314 318 322 320 321 325 328 331 332 332 332 332 331 328 330 332 330 325 322 328 328 339 342 340
332 327 323 318 315 314 312 313 313 313 312 312 313 312 313 313 313 313 315 316 323 328 329 331 332 332 333 335 335 335 335 336 335 336 333 331 330 320 327 328 331 341 341
331 330 323 319 316 314 313 312 314 314 313 313 313 313 314 314 314 314 316 317 320 326 331 333 333 334 336 337 337 337 335 336 337 336 336 334 331 323 329 331 332 331 337
332 330 325 320 317 314 314 312 313 314 313 313 314 314 314 315 315 315 316 318 321 327 333 335 334 333 334 330 327 328 329 330 332 334 336 336 330 328 330 338 334 332 336
334 330 328 325 320 315 314 313 312 313 314 314 314 314 314 315 316 316 317 318 320 323 328 332 332 334 332 330 330 329 326 325 330 331 332 336 332 328 331 338 336 334 333
336 336 332 326 333 325 325 315 313 313 314 314 314 314 315 316 316 317 318 319 320 322 329 332 332 333 331 330 330 329 329 329 332 333 331 333 333 330 330 335 336 333 331
337 336 335 330 332 337 338 335 318 314 313 314 315 315 316 330 331 328 325 321 320 322 326 332 334 333 331 330 329 328 329 334 332 331 331 331 330 331 330 334 335 334 331
340 338 335 329 328 332 332 331 337 337 334 326 327 332 328 334 335 332 331 321 322 324 325 330 333 334 333 336 334 330 333 332 330 330 328 327 327 329 333 334 334 334 330
339 339 337 335 331 331 334 333 333 339 336 335 333 332 335 336 335 333 333 332 333 329 333 333 336 339 338 337 335 334 333 332 329 330 330 325 324 324 331 331 333 334 331
332 335 336 336 336 334 331 332 333 334 336 335 336 336 333 336 335 333 333 332 335 333 335 336 337 339 340 339 336 334 333 332 331 330 331 329 328 328 329 330 331 333 331
326 325 328 331 334 335 335 334 332 331 334 334 335 336 333 333 335 334 333 332 332 330 329 334 337 339 339 339 337 334 334 333 332 331 332 329 329 330 330 333 333 332 331
325 325 326 326 328 330 331 334 334 334 335 336 336 335 336 333 335 334 333 333 326 323 324 333 335 338 338 337 338 335 334 334 333 332 332 331 329 330 329 329 333 335 336
325 324 325 325 324 324 325 327 332 335 336 336 337 336 336 336 336 334 332 332 327 326 324 327 329 336 338 335 337 334 334 334 333 332 332 331 330 328 328 327 328 331 335
323 323 323 323 323 323 323 324 332 337 337 337 337 337 337 336 335 335 333 332 327 331 325 331 330 337 338 335 335 334 333 334 333 330 332 331 330 330 328 329 329 328 330
321 322 323 322 322 322 323 327 335 337 337 337 338 337 338 337 335 335 334 333 328 330 326 330 332 337 335 333 335 334 334 331 331 330 330 331 331 330 330 330 328 328 329
321 321 322 322 321 321 328 334 338 339 339 339 338 338 338 338 336 336 335 334 332 329 330 327 335 336 335 336 334 334 334 332 330 331 330 330 331 331 331 332 330 331 329
321 321 321 321 322 322 334 337 338 339 340 339 339 340 339 339 338 336 337 334 331 329 328 330 337 336 335 331 333 331 331 332 331 330 330 330 331 331 331 331 331 333 331
323 321 321 320 321 324 333 338 340 340 339 338 340 340 340 339 338 337 337 333 331 332 336 337 335 335 335 331 330 330 332 331 330 330 330 329 327 329 330 331 332 333 333
324 321 320 319 321 325 332 338 339 339 339 340 341 341 340 339 337 338 336 335 335 338 337 336 335 334 331 327 327 331 332 332 329 329 330 329 327 327 330 331 331 330 329
323 323 318 320 325 330 334 339 340 341 341 341 341 341 340 340 340 337 337 337 338 338 336 335 332 330 330 330 326 328 327 328 330 331 328 328 327 328 329 328 331 328 328
321 321 320 329 336 337 338 339 340 341 341 341 341 342 342 340 339 339 338 338 337 335 334 335 331 330 328 331 330 329 328 328 328 329 331 329 325 329 331 327 328 331 331
318 322 333 339 341 339 339 340 341 341 340 341 342 342 341 340 339 337 334 332 333 334 334 333 332 331 329 330 329 328 328 328 329 328 330 329 329 326 328 326 330 328 327

GFSSE_925_thetae_048.txt.gz
Theta_e
341 343 325 320 317 318 317 315 316 320 333 342 346 347 346 345 344 337 328 321 318 317 315 312 311 312 312 311 309 309 310 313 321 332 339 341 344 343 341 343 343 348 344
339 344 323 319 317 317 316 314 314 314 316 324 335 342 343 339 331 321 317 316 313 314 315 317 321 323 328 325 318 316 314 310 309 309 317 332 340 343 342 342 342 346 342
340 344 326 319 317 315 315 313 313 312 313 313 315 318 320 318 316 314 311 310 311 324 328 326 322 321 327 328 324 320 319 318 317 313 308 319 329 338 341 342 341 344 342
342 345 337 319 316 315 314 313 313 313 312 312 312 312 312 312 311 310 310 310 312 322 324 325 327 325 324 326 328 325 322 323 323 317 327 323 320 326 337 340 342 340 339
343 344 339 318 316 315 314 313 313 313 312 312 311 311 311 311 311 311 311 312 316 324 325 326 326 328 330 331 331 331 332 331 325 329 328 327 325 321 329 332 340 341 340
341 343 339 319 317 315 313 312 313 313 312 312 312 312 312 312 312 312 313 314 318 324 328 328 327 328 331 334 335 335 335 336 332 337 332 330 327 325 322 330 330 341 342
339 340 342 321 317 315 313 312 313 313 312 312 312 312 312 312 312 313 314 316 320 324 328 331 331 331 334 337 337 338 336 335 337 336 337 334 330 324 320 328 333 332 339
340 340 339 324 317 316 314 313 313 313 313 312 312 313 313 313 313 314 315 317 321 329 332 332 332 333 333 334 331 330 329 328 333 333 334 337 334 324 324 329 337 333 335
341 342 341 342 327 316 315 314 312 314 314 313 313 313 314 314 314 315 316 318 321 327 332 334 334 334 334 331 330 330 328 325 330 332 332 334 336 326 327 334 339 337 336
341 341 342 342 340 338 335 317 314 314 314 314 313 314 314 315 316 316 317 319 322 325 329 332 333 334 334 331 331 330 329 328 332 333 334 332 336 331 328 332 337 336 334
339 342 342 341 340 339 335 336 324 321 319 318 317 316 322 330 333 331 329 329 321 324 326 331 332 333 332 331 330 329 328 335 335 334 332 333 330 331 332 332 335 335 332
338 340 342 343 341 341 337 338 343 338 336 334 332 334 333 330 331 332 331 329 325 323 324 330 332 333 334 337 339 333 334 334 333 332 331 330 327 326 334 333 333 333 333
338 339 341 343 343 341 340 338 340 341 339 338 336 334 335 332 332 333 332 333 333 329 333 332 336 338 338 338 336 335 333 334 332 331 331 328 320 323 332 333 331 333 332
335 336 339 343 345 343 340 340 339 339 340 340 340 338 336 336 334 335 333 333 333 333 333 334 335 338 339 339 337 336 335 334 332 332 333 329 328 328 330 334 332 333 333
332 332 333 337 346 345 343 341 341 341 340 340 340 340 339 336 335 336 334 332 332 332 333 334 335 337 338 338 338 337 335 334 334 333 332 332 329 329 330 334 334 335 334
331 332 332 335 341 346 345 345 343 344 341 341 340 340 341 338 336 336 335 334 331 332 331 335 333 336 337 337 338 338 336 334 334 334 333 334 331 329 329 329 334 335 337
331 332 333 336 337 342 344 343 344 341 342 340 340 341 340 341 337 336 336 335 332 331 333 332 333 335 335 338 338 338 337 335 334 334 334 333 333 331 328 329 328 332 336
332 332 332 330 329 332 336 338 339 339 340 341 340 341 342 342 341 338 336 335 334 332 332 332 331 331 331 337 339 337 337 335 333 335 335 334 333 332 331 327 328 328 330
331 331 330 330 332 334 332 334 336 339 341 340 341 341 342 342 342 339 338 337 336 334 332 331 331 330 330 339 338 337 337 335 334 334 334 333 333 333 332 330 329 329 328
327 329 329 327 332 334 331 336 338 340 342 341 341 341 342 342 341 341 340 339 339 335 331 331 329 330 336 338 337 336 335 336 336 335 333 333 331 333 332 331 333 329 328
327 328 331 333 336 336 333 336 339 340 342 342 342 343 343 342 342 342 341 340 339 335 334 332 332 334 338 337 337 336 335 334 334 333 333 333 332 333 332 333 332 332 331
327 329 331 333 335 337 334 338 339 341 342 343 344 344 343 344 344 342 342 341 339 337 336 336 335 338 336 337 335 333 335 334 333 333 333 333 333 333 332 332 332 333 333
326 327 330 332 336 338 336 340 343 344 344 343 344 345 345 345 341 342 343 341 340 338 338 338 339 338 336 335 334 333 335 336 336 332 333 332 332 331 329 332 333 334 335
325 325 327 331 334 337 340 340 344 344 344 344 345 345 344 343 343 343 343 340 339 339 339 339 338 337 336 334 331 332 332 331 333 335 332 332 332 330 327 331 333 333 334
322 323 325 328 333 338 342 341 345 344 345 345 345 346 345 344 344 344 342 341 342 340 338 338 338 337 335 334 332 332 331 331 331 334 334 332 331 329 329 333 329 333 333
321 322 323 327 337 342 343 344 345 344 345 346 347 347 346 345 344 343 343 342 341 339 339 338 337 335 334 332 331 331 330 330 330 331 333 333 330 330 331 331 331 330 333